Regional Weather Roundup
Issued by NWS Burlington, VT

Home | Current Version | Previous Version | Text Only | Print | Product List | Glossary On
Versions: 1 2 3 4 5 6 7 8 9 10 11 12 13 14 15 16 17 18 19 20 21 22 23 24 25 26 27 28 29 30 31 32 33 34 35 36 37 38 39 40 41 42 43 44 45 46 47 48 49 50
000
ASUS41 KBTV 311830
RWRBTV
VERMONT REGIONAL WEATHER ROUNDUP
NATIONAL WEATHER SERVICE BURLINGTON VT
200 PM EDT TUE MAY 31 2016

NOTE: "FAIR" INDICATES FEW OR NO CLOUDS BELOW 12,000 FEET WITH NO
SIGNIFICANT WEATHER AND/OR OBSTRUCTIONS TO VISIBILITY.

* THESE REPORTS ARE NOT UNDER NWS QUALITY CONTROL AND/OR DO NOT
  REPORT WEATHER SUCH AS PRECIPITATION AND FOG.

VTZ001>019-311900-
_____VERMONT_____


CITY           SKY/WX    TMP DP  RH WIND       PRES   REMARKS
BURLINGTON     FAIR      82  47  29 W12G17    29.87F
6HR MIN TEMP:  69; 6HR MAX TEMP:  82;

MONTPELIER     FAIR      76  47  35 W12G17    29.93S
6HR MIN TEMP:  65; 6HR MAX TEMP:  76;

MORRISVILLE    FAIR      76  46  34 SW13G20   29.89F
6HR MIN TEMP:  67; 6HR MAX TEMP:  77;

ST. JOHNSBURY*   N/A     79  45  29 MISG      29.85S
6HR MIN TEMP:  66; 6HR MAX TEMP:  80;

LYNDONVILLE*   FAIR      75  47  36 W17G25    29.90S
6HR MIN TEMP:  64; 6HR MAX TEMP:  75;

RUTLAND*       FAIR      78  45  30 W12G20    29.91F
6HR MIN TEMP:  68; 6HR MAX TEMP:  79;

SPRINGFIELD    FAIR      81  46  29 VRB7      29.89F
6HR MIN TEMP:  71; 6HR MAX TEMP:  82;

HIGHGATE*      FAIR      77  52  40 W6G16     29.87S
6HR MIN TEMP:  66; 6HR MAX TEMP:  78;

NEWPORT*       FAIR      74  49  40 W16G25    29.89R
6HR MIN TEMP:  66; 6HR MAX TEMP:  74;

BENNINGTON     FAIR      79  50  36 W14G22    29.93F
6HR MIN TEMP:  67; 6HR MAX TEMP:  79;

SUTTON*          N/A     73 N/A N/A MISG        N/A
MT. MANSFIELD*   N/A     64 N/A N/A NW28        N/A

_____LAKE CHAMPLAIN_____


CITY           SKY/WX    TMP DP  RH WIND       PRES   REMARKS
BURTON ISLAND*   N/A     73  52  46 W8          N/A
COLCHESTER RF*   N/A     73  48  40 NW13        N/A
DIAMOND ISL*     N/A     79  43  27 W16         N/A

$$

NYZ007-026>031-035-052-083-087-311900-
_____NORTHERN NEW YORK_____


CITY           SKY/WX    TMP DP  RH WIND       PRES   REMARKS
PLATTSBURGH    SUNNY     81  49  32 W10G20    29.86F
6HR MIN TEMP:  68; 6HR MAX TEMP:  82;

SARANAC LAKE   MOSUNNY   75  42  30 W9G28     29.92S
6HR MIN TEMP:  62; 6HR MAX TEMP:  75;

MASSENA        PTSUNNY   78  49  35 W14G25    29.90S
6HR MIN TEMP:  65; 6HR MAX TEMP:  80;

OGDENSBURG*    SUNNY     79  48  34 W10G23    29.90S
WATERTOWN      SUNNY     75  49  39 SW17G26   29.95F
6HR MIN TEMP:  66; 6HR MAX TEMP:  75;

ALBANY         MOSUNNY   81  50  33 W21G29    29.93F
6HR MIN TEMP:  69; 6HR MAX TEMP:  81;

GLENS FALLS    SUNNY     83  48  29 SW9       29.89F
6HR MIN TEMP:  70; 6HR MAX TEMP:  83;


$$
NHZ002-005-011-311900-
_____NEW HAMPSHIRE_____


CITY           SKY/WX    TMP DP  RH WIND       PRES   REMARKS
LEBANON        SUNNY     83  45  26 W14G23    29.87F
6HR MIN TEMP:  70; 6HR MAX TEMP:  83;

MT WASHINGTON  MOSUNNY   48  37  66 W47G59      N/A
6HR MIN TEMP:  40; 6HR MAX TEMP:  50;

PLYMOUTH       FAIR      82  44  25 W8        29.85F
6HR MIN TEMP:  69; 6HR MAX TEMP:  82;

WHITEFIELD     SUNNY     79  49  34 W12       29.86F
6HR MIN TEMP:  67; 6HR MAX TEMP:  79;


$$

_____REGIONAL QUEBEC LOCATIONS_____


CITY           SKY/WX    TMP DP  RH WIND       PRES   REMARKS
MONTREAL       PTSUNNY   77  52  41 W17G28    29.85S
QUEBEC CITY    LGT RAIN  70  57  64 W17G24    29.77R
SHERBROOKE     PTSUNNY   75  52  43 W21G26    29.85R

_____REGIONAL ONTARIO LOCATIONS_____


CITY           SKY/WX    TMP DP  RH WIND       PRES   REMARKS
OTTAWA         MOSUNNY   73  50  43 W18G28    29.92R

______KEY______
VSB  - VISIBILITY IN MILES
WCI  - WIND CHILL INDEX
HX   - HEAT INDEX
$$
NNNN




USA.gov is the U.S. government's official web portal to all federal, state and local government web resources and services.